When you browse on this site, cookies collect data to enhance your experience and personalize the content and advertising you see.
Visit our Privacy Policy to learn more. By continuing to use the site, you agree to this use of cookies and data.
  • în România
  • Lista ţărilor
  • Pe 7 zile
  • Temperatura apei
  • Hartă satelitară
  • Meteo pe hartă
  • Widget-uri
  • user-avatar
    Intrare

    Meteo pe oră la Myslawczyce

    Astăzi, 27 Iunie, Joi

    Timp Temperatura Precipitaţii Vânt Presiune Umiditate
    00:00 +26°C° 0.2 mm 4 m/s 746 mmHg 80%
    01:00 +25°C° 0.2 mm 4 m/s 746 mmHg 82%
    02:00 +25°C° 0.6 mm 4 m/s 746 mmHg 85%
    03:00 +23°C° 0.6 mm 5 m/s 746 mmHg 88%
    04:00 +23°C° 0.6 mm 5 m/s 745 mmHg 91%
    05:00 +23°C° 0.4 mm 5 m/s 745 mmHg 89%
    06:00 +25°C° 0.4 mm 5 m/s 746 mmHg 86%
    07:00 +24°C° 0.4 mm 6 m/s 746 mmHg 84%
    08:00 +24°C° 0 mm 6 m/s 746 mmHg 78%
    09:00 +26°C° 0 mm 7 m/s 746 mmHg 72%
    10:00 +26°C° 0 mm 7 m/s 746 mmHg 66%
    11:00 +27°C° 0 mm 7 m/s 746 mmHg 60%
    12:00 +27°C° 0 mm 7 m/s 746 mmHg 54%
    13:00 +27°C° 0 mm 8 m/s 746 mmHg 49%
    14:00 +26°C° 0 mm 7 m/s 746 mmHg 50%
    15:00 +24°C° 0 mm 7 m/s 745 mmHg 51%
    16:00 +24°C° 0 mm 6 m/s 745 mmHg 53%
    17:00 +22°C° 0 mm 6 m/s 745 mmHg 58%
    18:00 +21°C° 0 mm 5 m/s 745 mmHg 63%
    19:00 +20°C° 0 mm 4 m/s 745 mmHg 67%
    20:00 +19°C° 0 mm 4 m/s 745 mmHg 69%
    21:00 +18°C° 0 mm 4 m/s 746 mmHg 71%
    22:00 +17°C° 0 mm 3 m/s 746 mmHg 73%
    23:00 +16°C° 0 mm 3 m/s 746 mmHg 78%

    Mâine, 28 Iunie, Vineri

    Timp Temperatura Precipitaţii Vânt Presiune Umiditate
    00:00 +16°C° 0 mm 3 m/s 746 mmHg 84%
    01:00 +14°C° 0 mm 3 m/s 747 mmHg 90%
    02:00 +14°C° 0 mm 3 m/s 747 mmHg 92%
    03:00 +13°C° 0 mm 3 m/s 747 mmHg 94%
    04:00 +13°C° 0 mm 3 m/s 747 mmHg 96%
    05:00 +14°C° 0 mm 4 m/s 747 mmHg 89%
    06:00 +15°C° 0 mm 4 m/s 747 mmHg 81%
    07:00 +17°C° 0 mm 4 m/s 748 mmHg 74%
    08:00 +18°C° 0 mm 4 m/s 748 mmHg 67%
    09:00 +19°C° 0 mm 4 m/s 748 mmHg 60%
    10:00 +20°C° 0 mm 5 m/s 748 mmHg 53%
    11:00 +21°C° 0 mm 5 m/s 748 mmHg 52%
    12:00 +21°C° 0 mm 5 m/s 748 mmHg 52%
    13:00 +22°C° 0 mm 5 m/s 747 mmHg 51%
    14:00 +22°C° 0 mm 5 m/s 747 mmHg 52%
    15:00 +22°C° 0 mm 4 m/s 747 mmHg 53%
    16:00 +22°C° 0 mm 4 m/s 747 mmHg 54%
    17:00 +21°C° 0.2 mm 3 m/s 747 mmHg 63%
    18:00 +20°C° 0.2 mm 3 m/s 747 mmHg 71%
    19:00 +19°C° 0.2 mm 2 m/s 747 mmHg 80%
    20:00 +18°C° 0.1 mm 2 m/s 747 mmHg 83%
    21:00 +17°C° 0.1 mm 2 m/s 747 mmHg 87%
    22:00 +15°C° 0.1 mm 2 m/s 748 mmHg 90%
    23:00 +14°C° 0 mm 2 m/s 748 mmHg 89%

    Poimâine, 29 Iunie, Sâmbătă

    Timp Temperatura Precipitaţii Vânt Presiune Umiditate
    00:00 +14°C° 0 mm 2 m/s 748 mmHg 88%
    01:00 +12°C° 0 mm 3 m/s 748 mmHg 88%
    02:00 +12°C° 0 mm 2 m/s 748 mmHg 88%
    03:00 +10°C° 0 mm 2 m/s 748 mmHg 88%
    04:00 +9°C° 0 mm 2 m/s 748 mmHg 88%
    05:00 +12°C° 0 mm 2 m/s 749 mmHg 82%
    06:00 +14°C° 0 mm 2 m/s 749 mmHg 76%
    07:00 +16°C° 0 mm 2 m/s 749 mmHg 70%
    08:00 +17°C° 0 mm 2 m/s 749 mmHg 64%
    09:00 +19°C° 0 mm 2 m/s 749 mmHg 58%
    10:00 +20°C° 0 mm 2 m/s 749 mmHg 52%
    11:00 +21°C° 0 mm 2 m/s 749 mmHg 50%
    12:00 +23°C° 0 mm 2 m/s 748 mmHg 49%
    13:00 +24°C° 0 mm 2 m/s 748 mmHg 47%
    14:00 +24°C° 0 mm 2 m/s 748 mmHg 48%
    15:00 +24°C° 0 mm 2 m/s 748 mmHg 48%
    16:00 +25°C° 0 mm 2 m/s 747 mmHg 49%
    17:00 +24°C° 0 mm 2 m/s 747 mmHg 54%
    18:00 +21°C° 0 mm 2 m/s 747 mmHg 60%
    19:00 +20°C° 0 mm 2 m/s 747 mmHg 65%
    20:00 +19°C° 0 mm 2 m/s 747 mmHg 67%
    21:00 +18°C° 0 mm 2 m/s 747 mmHg 69%
    22:00 +17°C° 0 mm 2 m/s 747 mmHg 71%
    23:00 +16°C° 0 mm 2 m/s 747 mmHg 72%

    30 Iunie, Duminică

    Timp Temperatura Precipitaţii Vânt Presiune Umiditate
    00:00 +16°C° 0 mm 2 m/s 747 mmHg 72%
    01:00 +15°C° 0 mm 2 m/s 747 mmHg 73%
    02:00 +15°C° 0 mm 2 m/s 747 mmHg 73%
    03:00 +15°C° 0 mm 2 m/s 747 mmHg 73%
    04:00 +15°C° 0 mm 2 m/s 747 mmHg 73%
    05:00 +17°C° 0 mm 2 m/s 747 mmHg 69%
    06:00 +19°C° 0 mm 2 m/s 747 mmHg 65%
    07:00 +21°C° 0 mm 2 m/s 747 mmHg 61%
    08:00 +24°C° 0 mm 2 m/s 747 mmHg 57%
    09:00 +25°C° 0 mm 2 m/s 747 mmHg 53%
    10:00 +27°C° 0 mm 2 m/s 748 mmHg 48%
    11:00 +28°C° 0 mm 2 m/s 747 mmHg 46%
    12:00 +29°C° 0 mm 2 m/s 747 mmHg 44%
    13:00 +30°C° 0 mm 2 m/s 747 mmHg 43%
    14:00 +30°C° 0 mm 2 m/s 746 mmHg 43%
    15:00 +30°C° 0 mm 1 m/s 746 mmHg 43%
    16:00 +31°C° 0 mm 1 m/s 746 mmHg 44%
    17:00 +29°C° 0 mm 2 m/s 746 mmHg 51%
    18:00 +27°C° 0 mm 2 m/s 746 mmHg 59%
    19:00 +26°C° 0 mm 2 m/s 745 mmHg 66%
    20:00 +24°C° 0 mm 2 m/s 745 mmHg 70%
    21:00 +23°C° 0 mm 2 m/s 745 mmHg 74%
    22:00 +21°C° 0 mm 2 m/s 745 mmHg 78%
    23:00 +20°C° 0 mm 2 m/s 745 mmHg 79%

    1 Iulie, Luni

    Timp Temperatura Precipitaţii Vânt Presiune Umiditate
    00:00 +20°C° 0 mm 2 m/s 745 mmHg 80%
    01:00 +19°C° 0 mm 2 m/s 745 mmHg 81%
    02:00 +19°C° 0 mm 2 m/s 745 mmHg 83%
    03:00 +18°C° 0 mm 2 m/s 744 mmHg 84%
    04:00 +18°C° 0 mm 3 m/s 744 mmHg 86%
    05:00 +20°C° 0 mm 3 m/s 744 mmHg 79%
    06:00 +22°C° 0 mm 3 m/s 744 mmHg 73%
    07:00 +25°C° 0 mm 4 m/s 744 mmHg 66%
    08:00 +26°C° 0 mm 4 m/s 744 mmHg 63%
    09:00 +28°C° 0 mm 4 m/s 744 mmHg 61%
    10:00 +30°C° 0 mm 5 m/s 744 mmHg 58%
    11:00 +32°C° 0 mm 5 m/s 744 mmHg 55%
    12:00 +33°C° 0 mm 5 m/s 743 mmHg 53%
    13:00 +33°C° 0 mm 5 m/s 743 mmHg 50%
    14:00 +33°C° 0 mm 5 m/s 743 mmHg 51%
    15:00 +33°C° 0 mm 5 m/s 743 mmHg 52%
    16:00 +33°C° 0 mm 4 m/s 742 mmHg 53%
    17:00 +28°C° 6 mm 4 m/s 742 mmHg 66%
    18:00 +24°C° 6 mm 3 m/s 742 mmHg 79%
    19:00 +19°C° 6 mm 3 m/s 742 mmHg 92%
    20:00 +19°C° 0.1 mm 3 m/s 742 mmHg 91%
    21:00 +19°C° 0.1 mm 2 m/s 742 mmHg 91%
    22:00 +18°C° 0.1 mm 2 m/s 743 mmHg 90%
    23:00 +18°C° 0.1 mm 2 m/s 743 mmHg 90%

    2 Iulie, Marţi

    Timp Temperatura Precipitaţii Vânt Presiune Umiditate
    00:00 +18°C° 0.1 mm 2 m/s 743 mmHg 91%
    01:00 +18°C° 0.1 mm 2 m/s 743 mmHg 91%
    02:00 +19°C° 0.2 mm 2 m/s 743 mmHg 92%
    03:00 +19°C° 0.2 mm 3 m/s 743 mmHg 93%
    04:00 +19°C° 0.2 mm 3 m/s 742 mmHg 93%
    05:00 +20°C° 0 mm 4 m/s 743 mmHg 88%
    06:00 +21°C° 0 mm 4 m/s 743 mmHg 82%
    07:00 +21°C° 0 mm 5 m/s 743 mmHg 77%
    08:00 +22°C° 0 mm 5 m/s 743 mmHg 71%
    09:00 +23°C° 0 mm 5 m/s 744 mmHg 66%
    10:00 +25°C° 0 mm 5 m/s 744 mmHg 61%
    11:00 +25°C° 0.1 mm 5 m/s 744 mmHg 60%
    12:00 +26°C° 0.1 mm 5 m/s 744 mmHg 59%
    13:00 +26°C° 0.1 mm 6 m/s 744 mmHg 58%
    14:00 +26°C° 0 mm 6 m/s 744 mmHg 56%
    15:00 +24°C° 0 mm 6 m/s 744 mmHg 54%
    16:00 +24°C° 0 mm 6 m/s 744 mmHg 52%
    17:00 +23°C° 0 mm 5 m/s 744 mmHg 57%
    18:00 +21°C° 0 mm 4 m/s 744 mmHg 62%
    19:00 +20°C° 0 mm 3 m/s 744 mmHg 67%
    20:00 +18°C° 0 mm 3 m/s 745 mmHg 69%
    21:00 +17°C° 0 mm 3 m/s 745 mmHg 71%
    22:00 +16°C° 0 mm 3 m/s 745 mmHg 73%
    23:00 +15°C° 0 mm 2 m/s 745 mmHg 75%
    Arată mai mult